| time (UTC) | temp F | wind direction | speed knots | gust knots | rain 1hr in | rain 24hr in | rain mn in | humidity % | barometer mb |
| 20260502203319 | 58 | 55 | 0.0 | 0.0 | 0.00 | 0.00 | 0.00 | 55 | 1018.6 |
| 20260502200319 | 61 | 55 | 0.0 | 0.0 | 0.00 | 0.00 | 0.00 | 50 | 1018.8 |
| 20260502194817 | 63 | 55 | 0.0 | 0.0 | 0.00 | 0.00 | 0.00 | 47 | 1018.9 |
| 20260502193318 | 65 | 55 | 0.0 | 0.0 | 0.00 | 0.00 | 0.00 | 44 | 1018.7 |
| 20260502191817 | 68 | 55 | 0.0 | 2.6 | 0.00 | 0.00 | 0.00 | 40 | 1018.7 |
| 20260502190318 | 69 | 55 | 0.9 | 3.5 | 0.00 | 0.00 | 0.00 | 37 | 1018.7 |
| 20260502184813 | 70 | 55 | 1.7 | 3.5 | 0.00 | 0.00 | 0.00 | 36 | 1018.6 |
| 20260502183316 | 71 | 65 | 1.7 | 3.5 | 0.00 | 0.00 | 0.00 | 35 | 1018.5 |
| 20260502181814 | 71 | 50 | 1.7 | 4.3 | 0.00 | 0.00 | 0.00 | 34 | 1018.5 |
| 20260502180314 | 72 | 48 | 1.7 | 4.3 | 0.00 | 0.00 | 0.00 | 33 | 1018.4 |
| 20260502170315 | 74 | 69 | 4.3 | 7.8 | 0.00 | 0.00 | 0.00 | 31 | 1018.6 |
| 20260502161813 | 76 | 57 | 4.3 | 9.6 | 0.00 | 0.00 | 0.00 | 28 | 1018.7 |
| 20260502160315 | 77 | 34 | 2.6 | 7.0 | 0.00 | 0.00 | 0.00 | 29 | 1018.9 |
| 20260502151815 | 77 | 59 | 2.6 | 8.7 | 0.00 | 0.00 | 0.00 | 30 | 1019.3 |
| 20260502150312 | 78 | 75 | 1.7 | 6.1 | 0.00 | 0.00 | 0.00 | 31 | 1019.4 |
| 20260502130307 | 80 | 97 | 1.7 | 7.8 | 0.00 | 0.00 | 0.00 | 30 | 1020.9 |
| 20260502121810 | 80 | 217 | 1.7 | 5.2 | 0.00 | 0.00 | 0.00 | 29 | 1021.5 |
| 20260502120305 | 78 | 184 | 2.6 | 7.8 | 0.00 | 0.00 | 0.00 | 33 | 1021.7 |
| 20260502114806 | 78 | 30 | 1.7 | 7.0 | 0.00 | 0.00 | 0.00 | 30 | 1022.0 |
| 20260502113311 | 77 | 242 | 1.7 | 7.0 | 0.00 | 0.00 | 0.00 | 32 | 1022.0 |
| 20260502111808 | 78 | 183 | 1.7 | 6.1 | 0.00 | 0.00 | 0.00 | 31 | 1022.2 |
| 20260502110305 | 77 | 115 | 0.9 | 6.1 | 0.00 | 0.00 | 0.00 | 33 | 1022.4 |
| 20260502104806 | 75 | 80 | 0.9 | 6.1 | 0.00 | 0.00 | 0.00 | 33 | 1022.6 |
| 20260502103309 | 75 | 59 | 1.7 | 4.3 | 0.00 | 0.00 | 0.00 | 35 | 1022.6 |
| 20260502101805 | 75 | 44 | 0.9 | 6.1 | 0.00 | 0.00 | 0.00 | 36 | 1022.9 |
| 20260502100306 | 74 | 255 | 0.9 | 5.2 | 0.00 | 0.00 | 0.00 | 37 | 1023.2 |
| 20260502090305 | 70 | 34 | 0.9 | 3.5 | 0.00 | 0.00 | 0.00 | 40 | 1023.9 |
| 20260502071532 | 59 | 165 | 0.0 | 1.7 | 0.00 | 0.00 | 0.00 | 56 | 1024.3 |
| 20260502064801 | 56 | 165 | 0.0 | 3.5 | 0.00 | 0.00 | 0.00 | 62 | 1024.3 |
| 20260502063300 | 52 | 165 | 0.9 | 1.7 | 0.00 | 0.00 | 0.00 | 69 | 1024.4 |
| 20260502061756 | 49 | 165 | 0.0 | 1.7 | 0.00 | 0.00 | 0.00 | 77 | 1024.3 |
| 20260502060300 | 44 | 195 | 0.0 | 1.7 | 0.00 | 0.00 | 0.00 | 89 | 1024.2 |
| 20260502054758 | 40 | 194 | 0.9 | 2.6 | 0.00 | 0.00 | 0.00 | 90 | 1024.2 |
| 20260502050256 | 37 | 126 | 0.0 | 0.9 | 0.00 | 0.00 | 0.00 | 88 | 1024.2 |
| 20260502044756 | 36 | 49 | 0.0 | 0.0 | 0.00 | 0.00 | 0.00 | 87 | 1024.1 |
| 20260502043255 | 36 | 49 | 0.0 | 0.0 | 0.00 | 0.00 | 0.00 | 86 | 1024.1 |
| 20260502041751 | 36 | 49 | 0.0 | 0.0 | 0.00 | 0.00 | 0.00 | 85 | 1024.2 |
| 20260502040251 | 36 | 49 | 0.0 | 0.0 | 0.00 | 0.00 | 0.00 | 85 | 1024.1 |
| 20260502034752 | 36 | 49 | 0.0 | 0.0 | 0.00 | 0.00 | 0.00 | 85 | 1024.2 |
| 20260502033254 | 36 | 49 | 0.0 | 0.0 | 0.00 | 0.00 | 0.00 | 83 | 1024.1 |
| 20260502031748 | 36 | 49 | 0.0 | 0.0 | 0.00 | 0.00 | 0.00 | 83 | 1024.2 |
| 20260502030246 | 37 | 49 | 0.0 | 0.0 | 0.00 | 0.00 | 0.00 | 83 | 1024.2 |
| 20260502023245 | 37 | 49 | 0.0 | 0.0 | 0.00 | 0.00 | 0.00 | 80 | 1024.4 |
| 20260502021746 | 38 | 49 | 0.0 | 0.0 | 0.00 | 0.00 | 0.00 | 80 | 1024.5 |
| 20260502014743 | 38 | 49 | 0.0 | 0.0 | 0.00 | 0.00 | 0.00 | 79 | 1024.6 |
| 20260502010239 | 40 | 49 | 0.0 | 0.0 | 0.00 | 0.00 | 0.00 | 78 | 1024.7 |
| 20260502004737 | 41 | 49 | 0.0 | 0.0 | 0.00 | 0.00 | 0.00 | 78 | 1024.8 |
| 20260502001737 | 41 | 49 | 0.0 | 0.0 | 0.00 | 0.00 | 0.00 | 78 | 1025.0 |
| 20260502000240 | 42 | 49 | 0.0 | 0.0 | 0.00 | 0.00 | 0.00 | 78 | 1025.0 |
| 20260501234735 | 42 | 49 | 0.0 | 0.0 | 0.00 | 0.00 | 0.00 | 77 | 1025.2 |
| 20260501233236 | 42 | 49 | 0.0 | 0.0 | 0.00 | 0.00 | 0.00 | 73 | 1025.1 |
| 20260501231735 | 43 | 49 | 0.0 | 0.0 | 0.00 | 0.00 | 0.00 | 72 | 1025.3 |
| 20260501224733 | 44 | 49 | 0.0 | 0.0 | 0.00 | 0.00 | 0.00 | 70 | 1025.4 |
| 20260501223234 | 45 | 49 | 0.0 | 0.0 | 0.00 | 0.00 | 0.00 | 69 | 1025.5 |
| 20260501221733 | 46 | 49 | 0.0 | 0.0 | 0.00 | 0.00 | 0.00 | 68 | 1025.7 |
| 20260501220236 | 46 | 49 | 0.0 | 0.0 | 0.00 | 0.00 | 0.00 | 67 | 1025.6 |
| 20260501211730 | 49 | 49 | 0.0 | 0.0 | 0.00 | 0.00 | 0.00 | 62 | 1025.7 |
| 20260501210232 | 51 | 49 | 0.0 | 0.0 | 0.00 | 0.00 | 0.00 | 60 | 1025.7 |
| 20260501204730 | 52 | 49 | 0.0 | 0.0 | 0.00 | 0.00 | 0.00 | 57 | 1026.0 |